Location: Boiro
(42.6475°N, 8.8834°W)
Time: 02:03:30
(UTC+01:00)

Explorer 7 - Pass Details

Date: 04 December 2021
Orbit: 483 x 674 km, 50.3° (Epoch: 23 January)

Event Time Altitude Azimuth Distance (km) Brightness Sun altitude
Rises 09:32:01 0° 281° (W) 2,755 9.8 5.7°
Reaches altitude 10° 09:34:34 10° 293° (WNW) 1,823 8.9 6.1°
Maximum altitude 09:38:09 28° 353° (N) 1,023 7.9 6.6°
Drops below altitude 10° 09:41:35 10° 54° (NE) 1,735 9.6 7.1°
Sets 09:43:57 0° 66° (ENE) 2,596 10.6 7.4°
